Location: Baia Mare
(47.6567°N, 23.5850°E)
Time: 10:54:30
(UTC+02:00)

ISS - Pass Details

Date: 14 December 2018
Orbit: 404 x 407 km, 51.6° (Epoch: 17 January)

Event Time Altitude Azimuth Distance (km) Brightness Sun altitude
Rises 18:03:53 0° 283° (WNW) 2,328 1.1 -14.3°
Reaches altitude 10° 18:06:55 10° 252° (WSW) 1,461 0.4 -14.8°
Maximum altitude 18:08:21 12° 226° (SW) 1,320 -0.3 -15.0°
Drops below altitude 10° 18:09:48 10° 199° (SSW) 1,455 -0.5 -15.2°
Enters shadow 18:17:36 -13° 152° (SSE) 4,108 1.2 -16.5°
